[[{"header":{"parameterUnit":"m.s-1","parameterCategory":2,"la1":30.2991,"la2":30.254,"lo1":-89.0895,"lo2":-89.0444,"dy":0.0017,"dx":0.0017,"nx":28,"ny":28,"refTime":"2023-03-27T15:00:00:Z","depth":"0","parameterNumber":2,"parameterNumberName":"U-component_of_CURRENTS"},"data":[0,0,0,0,0,0,0,0,0,0,0,0,0,0,0,0,0,0,0,0,0,0,0,0,0,0,0,0,0,0,0,0,0,0,0,0,0,0,0,0,0,0,0,0,0,0,0,0,0,0,0,0,0,0,0,0,0,0,-0.2445,-0.2448,0,-0.2517,-0.2516,-0.2514,-0.2421,-0.242,-0.2419,-0.2418,-0.2306,-0.2304,-0.2302,0,0,0,0,0,0,0,0,0,0,0,0,0,-0.221,-0.2213,-0.2444,-0.2448,-0.2451,-0.2517,-0.2516,-0.2514,-0.2421,-0.242,-0.2419,-0.2418,-0.2306,-0.2304,-0.2301,0,0,0,0,0,0,0,0,0,0,0,0,0,-0.2275,-0.2213,-0.2444,-0.2432,-0.2434,-0.2517,-0.2515,-0.2514,-0.2422,-0.242,-0.2419,-0.2417,-0.2307,-0.2304,-0.2301,-0.2312,0,0,-0.2291,-0.229,0,0,0,0,0,0,0,0,-0.2271,-0.228,-0.243,-0.2433,-0.2435,-0.2481,-0.2393,-0.2446,-0.2422,-0.2399,-0.2418,-0.2417,-0.2366,-0.2358,-0.234,-0.2306,-0.2302,-0.2291,-0.2289,-0.2288,-0.2287,0,0,0,0,0,0,0,-0.2267,-0.2277,-0.2446,-0.2435,-0.2438,-0.242,-0.2424,-0.2401,-0.2366,-0.24,-0.24,-0.2451,-0.2361,-0.2343,-0.2336,-0.23,-0.2291,-0.2289,-0.2287,-0.2285,-0.2316,-0.2318,0,0,0,0,0,0,-0.2314,-0.2273,-0.2445,-0.2451,-0.2378,-0.2427,-0.2431,-0.2447,-0.237,-0.2366,-0.2452,-0.2447,-0.2349,-0.234,-0.2332,-0.2367,-0.2288,-0.2285,-0.2283,-0.2313,-0.2316,-0.2319,0,0,0,0,0,0,-0.2308,-0.2327,-0.2442,-0.2386,-0.2403,-0.2436,-0.2452,-0.245,-0.2441,-0.2416,-0.2402,-0.245,-0.2347,-0.2336,-0.2321,-0.2361,-0.2284,-0.2281,-0.231,-0.2314,-0.2318,-0.242,0,0,0,0,0,0,-0.23,-0.2323,-0.2345,-0.2389,-0.2409,-0.2511,-0.2457,-0.2453,-0.2487,-0.2479,-0.2411,-0.2398,-0.2345,-0.2326,-0.2318,-0.2355,-0.2278,-0.2306,-0.2312,-0.2316,-0.2413,-0.2427,-0.2439,0,0,0,0,0,-0.229,-0.2327,-0.2344,-0.2368,-0.2439,-0.2516,-0.2521,-0.2521,-0.2489,-0.2499,-0.2447,-0.24,-0.2352,-0.2325,-0.2315,-0.2352,-0.2304,-0.231,-0.2316,-0.2408,-0.2424,-0.2439,0,0,0,0,0,0,-0.2218,-0.2326,-0.2344,-0.2406,-0.2475,-0.2511,-0.2517,-0.2537,-0.2504,-0.2483,-0.242,-0.2405,-0.2412,-0.2376,-0.2348,-0.2382,-0.2327,-0.2332,-0.2401,-0.2416,-0.2429,-0.2443,-0.2276,0,0,0,0,0,-0.2229,-0.229,-0.2381,-0.2434,-0.2449,-0.2484,-0.2514,-0.2542,-0.254,-0.2522,-0.2478,-0.2441,-0.2431,-0.2416,-0.2395,-0.2404,-0.2351,-0.243,-0.2443,-0.2454,-0.2463,-0.2443,-0.2454,-0.2339,-0.2339,-0.2338,0,0,-0.2201,-0.2294,-0.2311,-0.2428,-0.244,-0.2492,-0.2486,-0.2549,-0.2592,-0.2517,-0.2499,-0.2481,-0.2446,-0.2456,-0.2458,-0.2427,-0.2452,-0.2462,-0.2471,-0.2473,-0.245,-0.2461,-0.247,-0.2343,-0.2342,-0.2341,0,0,-0.2206,-0.2255,-0.2298,-0.2369,-0.2481,-0.2514,-0.2544,-0.2592,-0.2589,-0.2624,-0.2578,-0.259,-0.2553,-0.2546,-0.2537,-0.2614,-0.2524,-0.2614,-0.268,-0.2661,-0.267,-0.2677,-0.2585,-0.2583,-0.2616,-0.2616,-0.2616,0,-0.2183,-0.2251,-0.2322,-0.2399,-0.2459,-0.2522,-0.2573,-0.2598,-0.2649,-0.2665,-0.2631,-0.2628,-0.2601,-0.2632,-0.2661,-0.2643,-0.2587,-0.2618,-0.2675,-0.2681,-0.2687,-0.2591,-0.2587,-0.2622,-0.2621,-0.2621,-0.262,0,-0.2225,-0.228,-0.23,-0.2414,-0.2492,-0.2549,-0.2633,-0.2682,-0.2699,-0.2734,-0.2771,-0.274,-0.2743,-0.2753,-0.2725,-0.2771,-0.27,-0.2693,-0.2629,-0.2704,-0.2598,-0.2593,-0.263,-0.2628,-0.2626,-0.2625,0,0,-0.2127,-0.2297,-0.2296,-0.2344,-0.2509,-0.2564,-0.266,-0.2754,-0.2796,-0.2837,-0.2867,-0.2892,-0.2887,-0.288,-0.2858,-0.2853,-0.2837,-0.2795,-0.2792,-0.269,-0.2734,-0.2543,-0.2517,-0.2833,-0.2834,-0.2835,-0.2629,0,-0.2112,-0.2241,-0.2352,-0.2431,-0.2463,-0.2601,-0.2689,-0.281,-0.2858,-0.2897,-0.2923,-0.2926,-0.2929,-0.2921,-0.2934,-0.2864,-0.2834,-0.2889,-0.2689,-0.2682,-0.2493,-0.251,-0.2304,-0.2093,-0.2623,-0.2622,-0.2621,0,-0.2084,-0.2179,-0.2262,-0.2432,-0.2457,-0.2534,-0.2683,-0.2778,-0.2897,-0.2944,-0.2996,-0.2994,-0.3014,-0.2986,-0.2919,-0.2949,-0.2858,-0.2794,-0.2784,-0.257,-0.2482,-0.2114,-0.2062,-0.2039,-0.2611,-0.2612,-0.2613,0,-0.1932,-0.21,-0.2163,-0.222,-0.2426,-0.2489,-0.2596,-0.2762,-0.2817,-0.2933,-0.2962,-0.3017,-0.2976,-0.2946,-0.2835,-0.2875,-0.2704,-0.2736,-0.247,-0.2452,-0.2219,-0.218,-0.211,-0.2674,-0.2674,-0.2675,-0.2675,0,-0.1857,-0.1878,-0.2083,-0.2095,-0.2158,-0.2375,-0.2442,-0.2576,-0.2735,-0.2776,-0.2929,-0.2909,-0.2964,-0.288,-0.2819,-0.2592,-0.2683,-0.2466,-0.2397,-0.2244,-0.2211,-0.2133,-0.2193,-0.2667,-0.2669,-0.267,-0.2671,0,-0.1628,-0.1778,-0.1816,-0.2013,-0.2062,-0.2089,-0.2288,-0.2347,-0.2555,-0.2603,-0.2633,-0.2772,-0.2667,-0.2656,-0.2544,-0.2494,-0.2269,-0.2236,-0.2014,-0.1924,-0.1685,-0.1758,-0.1626,-0.1603,-0.1933,-0.1927,-0.1923,0,-0.1553,-0.1537,-0.1666,-0.1673,-0.1729,-0.1824,-0.1895,-0.2168,-0.2241,-0.2471,-0.2452,-0.2436,-0.2333,-0.2118,-0.2021,-0.1844,-0.1946,-0.1607,-0.1678,-0.1623,-0.1657,-0.1757,-0.1759,-0.1389,-0.138,-0.1373,-0.1367,0,-0.1345,-0.1357,-0.1393,-0.139,-0.1428,-0.1484,-0.1611,-0.1659,-0.1983,-0.2056,-0.2076,-0.2011,-0.1837,-0.1529,-0.137,-0.1322,-0.1558,-0.1449,-0.1472,-0.1284,-0.1312,-0.1268,-0.1545,-0.1303,-0.1309,-0.1314,-0.1318,-0.132,-0.1175,-0.111,-0.1147,-0.1125,-0.1154,-0.1161,-0.1167,-0.132,-0.14,-0.1517,-0.159,-0.1423,-0.1161,-0.0869,-0.0877,-0.079,-0.099,-0.0772,-0.0872,-0.0985,-0.0954,-0.1051,-0.0699,-0.0701,-0.0704,-0.0706,-0.0708,0,-0.1014,-0.0949,-0.0902,-0.0891,-0.0846,-0.0927,-0.1003,-0.1011,-0.1024,-0.1048,-0.1009,-0.0636,-0.0312,-0.0258,-0.0079,-0.0151,-0.0363,-0.029,-0.0426,-0.0468,-0.0567,-0.0535,-0.0035,-0.0035,-0.0035,-0.0035,-0.0035,-0.0035,-0.091,-0.0822,-0.0781,-0.0639,-0.0613,-0.0551,-0.0559,-0.0544,-0.0544,-0.0373,-0.0186,-0.0056,0.0186,0.0343,0.0328,0.017,-0.0062,-0.0066,-0.0259,-0.0358,-0.0414,-0.0468,-0.0452,0.0057,0.0057,-0.0081,-0.0082,-0.0083]},{"header":{"parameterUnit":"m.s-1","parameterCategory":2,"la1":30.2991,"la2":30.254,"lo1":-89.0895,"lo2":-89.0444,"dy":0.0017,"dx":0.0017,"nx":28,"ny":28,"refTime":"2023-03-27T15:00:00:Z","depth":"0","parameterNumber":3,"parameterNumberName":"V-component_of_CURRENTS"},"data":[0,0,0,0,0,0,0,0,0,0,0,0,0,0,0,0,0,0,0,0,0,0,0,0,0,0,0,0,0,0,0,0,0,0,0,0,0,0,0,0,0,0,0,0,0,0,0,0,0,0,0,0,0,0,0,0,0,0,-0.1557,-0.1554,0,-0.1363,-0.1362,-0.136,-0.1253,-0.1251,-0.125,-0.1249,-0.1057,-0.1053,-0.105,0,0,0,0,0,0,0,0,0,0,0,0,0,-0.1687,-0.1688,-0.1558,-0.1554,-0.1551,-0.1363,-0.1362,-0.136,-0.1253,-0.1251,-0.125,-0.1248,-0.1058,-0.1054,-0.1049,0,0,0,0,0,0,0,0,0,0,0,0,0,-0.1588,-0.1688,-0.1558,-0.1466,-0.1455,-0.1363,-0.1362,-0.136,-0.1253,-0.1251,-0.1249,-0.1247,-0.106,-0.1054,-0.1049,-0.1055,0,0,-0.1031,-0.1029,0,0,0,0,0,0,0,0,-0.1594,-0.1585,-0.1483,-0.1472,-0.1459,-0.132,-0.1336,-0.1254,-0.1254,-0.1343,-0.1249,-0.1246,-0.1139,-0.1127,-0.1112,-0.1046,-0.1038,-0.1031,-0.1027,-0.1025,-0.1023,0,0,0,0,0,0,0,-0.1601,-0.1591,-0.1493,-0.1479,-0.1465,-0.1382,-0.1368,-0.132,-0.1264,-0.1335,-0.1323,-0.1284,-0.1134,-0.1118,-0.1106,-0.1035,-0.1031,-0.1026,-0.1022,-0.102,-0.0897,-0.0897,0,0,0,0,0,0,-0.1611,-0.1599,-0.1499,-0.1486,-0.1509,-0.1381,-0.1366,-0.1376,-0.1264,-0.1241,-0.1285,-0.1279,-0.1128,-0.1113,-0.1099,-0.1067,-0.1025,-0.102,-0.1016,-0.0897,-0.0897,-0.0897,0,0,0,0,0,0,-0.1616,-0.1607,-0.1506,-0.1525,-0.1505,-0.1381,-0.1393,-0.1373,-0.1331,-0.1224,-0.1204,-0.1259,-0.1126,-0.1107,-0.1056,-0.106,-0.1017,-0.1012,-0.0897,-0.0897,-0.0897,-0.1025,0,0,0,0,0,0,-0.1622,-0.1611,-0.1617,-0.1528,-0.1504,-0.144,-0.1393,-0.1371,-0.1305,-0.1295,-0.1196,-0.1177,-0.1123,-0.1066,-0.1051,-0.1051,-0.1007,-0.0897,-0.0897,-0.0897,-0.102,-0.1029,-0.1037,0,0,0,0,0,-0.1628,-0.1634,-0.1621,-0.1606,-0.1521,-0.1438,-0.142,-0.1331,-0.1306,-0.1289,-0.1237,-0.1179,-0.1056,-0.1062,-0.1044,-0.1043,-0.0897,-0.0897,-0.0897,-0.1017,-0.1028,-0.1037,0,0,0,0,0,0,-0.1689,-0.162,-0.1604,-0.159,-0.1516,-0.1415,-0.1401,-0.1332,-0.1279,-0.128,-0.1191,-0.1169,-0.1129,-0.1067,-0.1076,-0.1006,-0.0962,-0.0959,-0.1059,-0.1069,-0.1077,-0.1085,-0.1003,0,0,0,0,0,-0.1711,-0.1703,-0.1619,-0.1606,-0.1597,-0.1506,-0.146,-0.1394,-0.1327,-0.1301,-0.1231,-0.1167,-0.1122,-0.108,-0.1033,-0.0996,-0.0916,-0.0978,-0.0987,-0.0994,-0.0987,-0.0879,-0.0877,-0.0899,-0.0899,-0.0899,0,0,-0.177,-0.1687,-0.1712,-0.1618,-0.1586,-0.1575,-0.1479,-0.1421,-0.1404,-0.1292,-0.1274,-0.1201,-0.1122,-0.109,-0.1063,-0.1032,-0.0949,-0.0995,-0.1002,-0.099,-0.0879,-0.0877,-0.0875,-0.0899,-0.0899,-0.0899,0,0,-0.1818,-0.1794,-0.1809,-0.1776,-0.1677,-0.1605,-0.1589,-0.1496,-0.1461,-0.1409,-0.1345,-0.1266,-0.1188,-0.1129,-0.1093,-0.1112,-0.1009,-0.1093,-0.1128,-0.1024,-0.1022,-0.1018,-0.0931,-0.0919,-0.1083,-0.1084,-0.1084,0,-0.1864,-0.187,-0.1795,-0.1793,-0.177,-0.1634,-0.1651,-0.1608,-0.1492,-0.1458,-0.1416,-0.1264,-0.1207,-0.1145,-0.1163,-0.113,-0.1059,-0.1104,-0.1036,-0.1031,-0.1025,-0.0936,-0.0921,-0.109,-0.1089,-0.1089,-0.1088,0,-0.1941,-0.1954,-0.1968,-0.193,-0.1887,-0.1875,-0.1803,-0.1747,-0.166,-0.1583,-0.1488,-0.1382,-0.1267,-0.1248,-0.122,-0.115,-0.1111,-0.1074,-0.1017,-0.1031,-0.0936,-0.0918,-0.1099,-0.1097,-0.1095,-0.1093,0,0,-0.2021,-0.2022,-0.2029,-0.2049,-0.1961,-0.1929,-0.1911,-0.1822,-0.1769,-0.1662,-0.1578,-0.1502,-0.1386,-0.1336,-0.1253,-0.1169,-0.1092,-0.1117,-0.1109,-0.1042,-0.0868,-0.0778,-0.0748,-0.1043,-0.104,-0.1038,-0.0826,0,-0.2095,-0.212,-0.2086,-0.2138,-0.2168,-0.2073,-0.204,-0.1944,-0.1825,-0.1716,-0.1586,-0.1489,-0.144,-0.1359,-0.1272,-0.1117,-0.1047,-0.1153,-0.0854,-0.0845,-0.0771,-0.0725,-0.0651,-0.0449,-0.0807,-0.0804,-0.0802,0,-0.2171,-0.2163,-0.2226,-0.2214,-0.2222,-0.2215,-0.2093,-0.2054,-0.1889,-0.1787,-0.1642,-0.1527,-0.1384,-0.1341,-0.1079,-0.1145,-0.1035,-0.0924,-0.0912,-0.0765,-0.0719,-0.0486,-0.0401,-0.0354,-0.0773,-0.0775,-0.0777,0,-0.2205,-0.2258,-0.2286,-0.2312,-0.2275,-0.2271,-0.222,-0.207,-0.2045,-0.1831,-0.1744,-0.1527,-0.138,-0.1217,-0.0986,-0.1032,-0.0683,-0.0708,-0.0528,-0.0521,-0.0364,-0.0347,-0.02,-0.0558,-0.0559,-0.0559,-0.056,0,-0.2251,-0.2303,-0.2325,-0.2363,-0.238,-0.2336,-0.231,-0.2194,-0.2078,-0.2021,-0.1798,-0.1623,-0.1342,-0.1112,-0.096,-0.0643,-0.0648,-0.0512,-0.0445,-0.0408,-0.0398,-0.0273,-0.0305,-0.0551,-0.0553,-0.0555,-0.0556,0,-0.2278,-0.2306,-0.2372,-0.2389,-0.2404,-0.2418,-0.2439,-0.2395,-0.2253,-0.2162,-0.2113,-0.17,-0.1309,-0.105,-0.0686,-0.0569,-0.0246,-0.0229,-0.0206,-0.0141,0.0033,-0.001,0.0214,0.03,-0.0004,-0.0,0.0003,0,-0.2251,-0.2302,-0.24,-0.2448,-0.2474,-0.2522,-0.2517,-0.2465,-0.2432,-0.2178,-0.2104,-0.1698,-0.1322,-0.0704,-0.0358,-0.0027,-0.0042,0.0155,0.0068,0.0082,0.0084,0.0025,0.0075,0.0219,0.0224,0.0228,0.0231,0,-0.2208,-0.2279,-0.2318,-0.2437,-0.2501,-0.2592,-0.2612,-0.2636,-0.2535,-0.2422,-0.2031,-0.1716,-0.1022,-0.0447,-0.0028,0.0157,0.02,0.0241,0.0275,0.0294,0.0228,0.033,0.001,0.0265,0.0261,0.0259,0.0257,0.0256,-0.2136,-0.2194,-0.2266,-0.2387,-0.2482,-0.2578,-0.2613,-0.2596,-0.2535,-0.2271,-0.1931,-0.1364,-0.0719,0.0014,0.0221,0.0598,0.05,0.0635,0.0591,0.0537,0.0596,0.0339,0.065,0.0649,0.0648,0.0647,0.0647,0,-0.2017,-0.2119,-0.221,-0.2352,-0.2447,-0.2527,-0.2592,-0.2561,-0.2437,-0.2106,-0.1684,-0.0885,-0.0255,0.0245,0.0779,0.0908,0.091,0.0948,0.0866,0.091,0.0732,0.0716,0.1035,0.1035,0.1034,0.1034,0.1034,0.1034,-0.1986,-0.2024,-0.2121,-0.2249,-0.2364,-0.2448,-0.2478,-0.2388,-0.2176,-0.1618,-0.1112,-0.0605,-0.0022,0.0536,0.099,0.1081,0.1123,0.1126,0.1139,0.0963,0.0928,0.0895,0.0876,0.1222,0.1222,0.1356,0.1357,0.1357]}],[{"header":{"parameterUnit":"m.s-1","parameterCategory":2,"la1":30.2991,"la2":30.254,"lo1":-89.0895,"lo2":-89.0444,"dy":0.0017,"dx":0.0017,"nx":28,"ny":28,"refTime":"2023-03-27T15:00:00:Z","depth":"2","parameterNumber":2,"parameterNumberName":"U-component_of_CURRENTS"},"data":[0,0,0,0,0,0,0,0,0,0,0,0,0,0,0,0,0,0,0,0,0,0,0,0,0,0,0,0,0,0,0,0,0,0,0,0,0,0,0,0,0,0,0,0,0,0,0,0,0,0,0,0,0,0,0,0,0,0,-0.2701,-0.2703,0,-0.2984,-0.2988,-0.2992,-0.3191,-0.3192,-0.3193,-0.3193,-0.3166,-0.3165,-0.3164,0,0,0,0,0,0,0,0,0,0,0,0,0,-0.267,-0.2669,-0.2701,-0.2703,-0.2706,-0.2983,-0.2988,-0.2993,-0.3191,-0.3192,-0.3193,-0.3193,-0.3167,-0.3165,-0.3164,0,0,0,0,0,0,0,0,0,0,0,0,0,-0.28,-0.2668,-0.27,-0.2831,-0.2844,-0.2982,-0.2988,-0.2994,-0.3191,-0.3192,-0.3193,-0.3194,-0.3167,-0.3165,-0.3164,-0.3133,0,0,-0.3158,-0.3157,0,0,0,0,0,0,0,0,-0.2792,-0.2802,-0.2809,-0.2822,-0.2837,-0.3044,-0.2968,-0.3021,-0.3191,-0.307,-0.3193,-0.3194,-0.3089,-0.3094,-0.3164,-0.3132,-0.313,-0.3157,-0.3156,-0.3155,-0.3155,0,0,0,0,0,0,0,-0.2783,-0.2793,-0.2823,-0.2811,-0.2829,-0.299,-0.3008,-0.2982,-0.3073,-0.3081,-0.3094,-0.3108,-0.3096,-0.3166,-0.3164,-0.313,-0.3157,-0.3156,-0.3155,-0.3154,-0.3057,-0.3056,0,0,0,0,0,0,-0.2707,-0.2782,-0.2814,-0.2831,-0.2805,-0.2988,-0.3008,-0.2985,-0.3081,-0.3096,-0.3107,-0.3116,-0.3169,-0.3166,-0.3163,-0.312,-0.3155,-0.3154,-0.3152,-0.3059,-0.3057,-0.3055,0,0,0,0,0,0,-0.2705,-0.2706,-0.2803,-0.2808,-0.283,-0.2983,-0.2959,-0.299,-0.3091,-0.3102,-0.3114,-0.3177,-0.317,-0.3166,-0.3152,-0.3119,-0.3153,-0.3151,-0.306,-0.3058,-0.3056,-0.3037,0,0,0,0,0,0,-0.2702,-0.2702,-0.2715,-0.28,-0.2826,-0.2861,-0.2958,-0.2995,-0.3091,-0.3108,-0.3164,-0.3163,-0.317,-0.3155,-0.315,-0.3117,-0.3149,-0.3062,-0.3059,-0.3057,-0.3039,-0.3034,-0.303,0,0,0,0,0,-0.27,-0.2733,-0.2713,-0.272,-0.2818,-0.2858,-0.2888,-0.3011,-0.3093,-0.3114,-0.3165,-0.3163,-0.3134,-0.3153,-0.3147,-0.3113,-0.3063,-0.306,-0.3057,-0.3041,-0.3035,-0.303,0,0,0,0,0,0,-0.2749,-0.2757,-0.2738,-0.2773,-0.2781,-0.2888,-0.2958,-0.3022,-0.3098,-0.3141,-0.3155,-0.3154,-0.3124,-0.312,-0.314,-0.3075,-0.3093,-0.3088,-0.3083,-0.3077,-0.3072,-0.3063,-0.3148,0,0,0,0,0,-0.2741,-0.2743,-0.2752,-0.2763,-0.2774,-0.286,-0.2918,-0.2984,-0.3042,-0.3088,-0.3115,-0.3133,-0.3105,-0.3096,-0.308,-0.3049,-0.3007,-0.3018,-0.3013,-0.301,-0.2997,-0.2899,-0.2884,-0.3045,-0.3045,-0.3045,0,0,-0.2743,-0.276,-0.2753,-0.277,-0.2808,-0.2819,-0.2902,-0.2982,-0.3012,-0.3056,-0.3124,-0.3117,-0.3093,-0.3064,-0.3048,-0.3059,-0.2944,-0.3006,-0.3003,-0.2992,-0.2894,-0.2878,-0.2864,-0.3043,-0.3043,-0.3044,0,0,-0.2737,-0.2765,-0.2749,-0.2763,-0.2807,-0.2851,-0.2859,-0.295,-0.3018,-0.3047,-0.3079,-0.3054,-0.3053,-0.302,-0.2999,-0.2951,-0.2922,-0.2948,-0.2919,-0.2824,-0.281,-0.2797,-0.2733,-0.2714,-0.2947,-0.2947,-0.2947,0,-0.2746,-0.2724,-0.2753,-0.2752,-0.2766,-0.2844,-0.283,-0.291,-0.299,-0.3007,-0.3054,-0.3032,-0.3021,-0.2942,-0.2941,-0.2937,-0.2896,-0.2946,-0.2817,-0.2803,-0.279,-0.2727,-0.2707,-0.2946,-0.2946,-0.2946,-0.2946,0,-0.271,-0.2712,-0.2721,-0.2705,-0.2713,-0.2747,-0.2785,-0.2849,-0.2931,-0.2972,-0.2953,-0.2951,-0.2922,-0.291,-0.2921,-0.2815,-0.2821,-0.2822,-0.2832,-0.2773,-0.2711,-0.269,-0.2944,-0.2945,-0.2945,-0.2945,0,0,-0.2658,-0.2687,-0.2688,-0.2662,-0.2712,-0.2703,-0.2749,-0.2768,-0.28,-0.2863,-0.2844,-0.2821,-0.2837,-0.2812,-0.2806,-0.274,-0.2627,-0.2754,-0.275,-0.2693,-0.2436,-0.235,-0.232,-0.2609,-0.2605,-0.2602,-0.2433,0,-0.2612,-0.26,-0.2623,-0.2585,-0.2564,-0.2637,-0.2642,-0.268,-0.2742,-0.2759,-0.2763,-0.2737,-0.2793,-0.2769,-0.2715,-0.2651,-0.257,-0.2674,-0.2499,-0.2494,-0.2426,-0.2291,-0.2158,-0.1987,-0.2413,-0.2409,-0.2407,0,-0.2548,-0.255,-0.2528,-0.25,-0.2495,-0.2512,-0.2529,-0.2541,-0.2587,-0.2627,-0.2626,-0.264,-0.2575,-0.262,-0.2481,-0.2552,-0.2487,-0.2439,-0.2431,-0.234,-0.2367,-0.2112,-0.1933,-0.2371,-0.2374,-0.2377,-0.2379,0,-0.2467,-0.2464,-0.2454,-0.246,-0.2462,-0.2485,-0.2487,-0.252,-0.2516,-0.2543,-0.2534,-0.2493,-0.2466,-0.238,-0.2349,-0.2394,-0.2184,-0.2223,-0.2075,-0.2071,-0.1913,-0.19,-0.2068,-0.2068,-0.2068,-0.2069,-0.2069,0,-0.2415,-0.2394,-0.2448,-0.2447,-0.2429,-0.242,-0.2407,-0.2445,-0.2435,-0.2359,-0.2455,-0.2384,-0.2404,-0.2324,-0.2278,-0.2114,-0.212,-0.2023,-0.1992,-0.1905,-0.1893,-0.2203,-0.222,-0.2062,-0.2064,-0.2065,-0.2066,0,-0.2359,-0.2385,-0.2375,-0.2403,-0.2406,-0.2401,-0.2374,-0.234,-0.2366,-0.227,-0.2259,-0.2286,-0.2179,-0.2182,-0.2039,-0.2005,-0.186,-0.1795,-0.1717,-0.1678,-0.1831,-0.1851,-0.1581,-0.1576,-0.1572,-0.1568,-0.1565,0,-0.2351,-0.2349,-0.2375,-0.2356,-0.2402,-0.2383,-0.2341,-0.2331,-0.2259,-0.2164,-0.2078,-0.2026,-0.1909,-0.1754,-0.1699,-0.1572,-0.169,-0.1379,-0.1416,-0.1769,-0.1767,-0.1793,-0.1817,-0.1211,-0.1206,-0.1201,-0.1197,0,-0.2343,-0.2381,-0.2376,-0.2331,-0.2312,-0.2238,-0.2173,-0.2101,-0.2001,-0.1912,-0.1711,-0.1612,-0.1525,-0.1374,-0.1325,-0.1231,-0.14,-0.1276,-0.1592,-0.137,-0.1408,-0.1413,-0.145,-0.1156,-0.116,-0.1163,-0.1165,-0.1167,-0.2368,-0.235,-0.2327,-0.2268,-0.2206,-0.2053,-0.1943,-0.1813,-0.1627,-0.1366,-0.1337,-0.1113,-0.1209,-0.101,-0.0956,-0.0944,-0.106,-0.1019,-0.1037,-0.106,-0.1061,-0.109,-0.078,-0.0782,-0.0784,-0.0785,-0.0787,0,-0.232,-0.2266,-0.2226,-0.2097,-0.196,-0.1971,-0.1768,-0.1594,-0.1307,-0.1039,-0.0808,-0.0653,-0.0576,-0.0672,-0.0599,-0.0611,-0.0636,-0.057,-0.0639,-0.0678,-0.0714,-0.0704,-0.0325,-0.0324,-0.0323,-0.0322,0,0,-0.2284,-0.2174,-0.211,-0.1859,-0.1776,-0.1544,-0.1406,-0.1158,-0.092,-0.0537,-0.0334,-0.0282,-0.0471,-0.0335,-0.0395,-0.0331,-0.0459,-0.0268,-0.063,-0.0735,-0.0768,-0.0961,-0.0986,0,0,0,0,0]},{"header":{"parameterUnit":"m.s-1","parameterCategory":2,"la1":30.2991,"la2":30.254,"lo1":-89.0895,"lo2":-89.0444,"dy":0.0017,"dx":0.0017,"nx":28,"ny":28,"refTime":"2023-03-27T15:00:00:Z","depth":"2","parameterNumber":3,"parameterNumberName":"V-component_of_CURRENTS"},"data":[0,0,0,0,0,0,0,0,0,0,0,0,0,0,0,0,0,0,0,0,0,0,0,0,0,0,0,0,0,0,0,0,0,0,0,0,0,0,0,0,0,0,0,0,0,0,0,0,0,0,0,0,0,0,0,0,0,0,0.0343,0.0346,0,0.0756,0.0762,0.0767,0.1023,0.1023,0.1023,0.1023,0.1225,0.123,0.1236,0,0,0,0,0,0,0,0,0,0,0,0,0,0.019,0.0191,0.0343,0.0347,0.035,0.0755,0.0762,0.0769,0.1023,0.1023,0.1023,0.1023,0.1223,0.123,0.1236,0,0,0,0,0,0,0,0,0,0,0,0,0,0.0408,0.0191,0.0342,0.0515,0.0533,0.0753,0.0762,0.0771,0.1023,0.1023,0.1023,0.1022,0.1221,0.1229,0.1237,0.1289,0,0,0.1262,0.1265,0,0,0,0,0,0,0,0,0.0395,0.0415,0.0486,0.0503,0.0524,0.0824,0.0782,0.0928,0.1023,0.0853,0.1023,0.1022,0.1061,0.1083,0.1185,0.1298,0.1307,0.1263,0.1268,0.1271,0.1273,0,0,0,0,0,0,0,0.0379,0.0401,0.0522,0.0489,0.0512,0.0713,0.0741,0.0815,0.096,0.0868,0.0883,0.0905,0.1073,0.1177,0.1191,0.131,0.1262,0.127,0.1275,0.1278,0.1425,0.1424,0,0,0,0,0,0,0.0276,0.0384,0.0509,0.0533,0.0441,0.0712,0.0746,0.074,0.0965,0.0996,0.0905,0.0915,0.1163,0.1181,0.1198,0.1239,0.1271,0.1279,0.1283,0.1426,0.1425,0.1424,0,0,0,0,0,0,0.027,0.0282,0.0492,0.0459,0.0497,0.071,0.0706,0.0748,0.0872,0.0992,0.1023,0.0983,0.1164,0.1187,0.1268,0.1248,0.1282,0.129,0.1427,0.1426,0.1425,0.1339,0,0,0,0,0,0,0.0264,0.0277,0.0273,0.0449,0.0494,0.056,0.0706,0.0756,0.0876,0.0895,0.1068,0.1088,0.1166,0.1256,0.1276,0.126,0.1296,0.1429,0.1427,0.1425,0.1343,0.1334,0.1327,0,0,0,0,0,0.0257,0.025,0.027,0.0287,0.0468,0.0556,0.0598,0.0765,0.0879,0.089,0.1042,0.1084,0.1257,0.1263,0.1287,0.1273,0.143,0.1427,0.1425,0.1346,0.1336,0.1327,0,0,0,0,0,0,0.02,0.0279,0.0305,0.0325,0.0391,0.0591,0.0651,0.0768,0.0918,0.0964,0.1098,0.1125,0.1177,0.1237,0.124,0.1304,0.1339,0.1342,0.127,0.1262,0.1254,0.1236,0.1303,0,0,0,0,0,0.0167,0.0172,0.026,0.027,0.0297,0.0478,0.0556,0.0659,0.0799,0.0875,0.1002,0.1121,0.119,0.1235,0.1302,0.1359,0.137,0.1354,0.1346,0.1339,0.1338,0.1361,0.1355,0.1417,0.1417,0.1417,0,0,0.0142,0.0191,0.0193,0.0256,0.0349,0.0397,0.0529,0.0627,0.0723,0.0862,0.1037,0.1098,0.1195,0.1254,0.128,0.1304,0.1314,0.1336,0.133,0.1334,0.1358,0.1352,0.1346,0.1415,0.1416,0.1416,0,0,0.0095,0.0131,0.0116,0.0173,0.0269,0.0364,0.0374,0.0558,0.0687,0.0818,0.0938,0.0999,0.1141,0.1208,0.1257,0.1247,0.1265,0.1243,0.1208,0.1229,0.1224,0.122,0.1165,0.1158,0.1248,0.1248,0.1248,0,0.0068,0.0069,0.0126,0.0148,0.0206,0.0331,0.0356,0.0502,0.0705,0.0798,0.0839,0.1054,0.1126,0.1203,0.1193,0.1231,0.1215,0.1239,0.1218,0.1215,0.1213,0.1159,0.1151,0.1244,0.1244,0.1245,0.1245,0,0.0025,0.0041,0.0046,0.0095,0.0145,0.0196,0.0338,0.0447,0.0599,0.0738,0.0862,0.0972,0.108,0.1096,0.1152,0.1163,0.1141,0.1197,0.124,0.1201,0.1146,0.1139,0.1237,0.1239,0.124,0.1241,0,0,-0.0061,-0.0002,0.0005,0.0025,0.0141,0.0176,0.0306,0.044,0.0529,0.0711,0.0811,0.0943,0.0991,0.1045,0.1102,0.1126,0.1073,0.114,0.1143,0.108,0.1046,0.1051,0.1044,0.1119,0.1119,0.1119,0.0992,0,-0.0103,-0.0095,-0.0042,-0.0013,0.0008,0.0149,0.023,0.0378,0.0521,0.0639,0.0799,0.0879,0.0979,0.0979,0.1033,0.1067,0.1061,0.1098,0.1099,0.1097,0.1105,0.1041,0.105,0.0941,0.0986,0.0985,0.0984,0,-0.0145,-0.013,-0.0124,-0.0061,-0.0045,-0.0007,0.0127,0.0224,0.0413,0.0504,0.0632,0.0747,0.0834,0.0893,0.0973,0.0984,0.0996,0.1024,0.1021,0.1061,0.1094,0.1001,0.0928,0.0974,0.0975,0.0976,0.0976,0,-0.0213,-0.0175,-0.0175,-0.0138,-0.0064,-0.0013,0.004,0.0195,0.0275,0.0407,0.0424,0.059,0.0642,0.0724,0.0851,0.088,0.0899,0.0954,0.0965,0.0962,0.099,0.0992,0.0968,0.0969,0.0969,0.0969,0.097,0,-0.0242,-0.0237,-0.0204,-0.0186,-0.0179,-0.0101,-0.0064,0.0022,0.011,0.0167,0.0329,0.0378,0.0603,0.0695,0.0778,0.0856,0.0853,0.0931,0.094,0.0953,0.0953,0.1026,0.1034,0.0964,0.0965,0.0966,0.0967,0,-0.0284,-0.027,-0.0258,-0.0212,-0.0204,-0.0184,-0.0132,-0.0098,-0.005,0.0013,0.0039,0.0217,0.0352,0.0547,0.0669,0.0752,0.0818,0.0835,0.0804,0.0814,0.0862,0.0867,0.0802,0.0801,0.0801,0.08,0.08,0,-0.0296,-0.0302,-0.0283,-0.0281,-0.025,-0.0227,-0.0211,-0.0163,-0.0128,-0.0067,-0.0041,0.01,0.0254,0.042,0.0632,0.0762,0.0789,0.0758,0.085,0.0834,0.085,0.0856,0.0862,0.081,0.0809,0.0809,0.0809,0,-0.0299,-0.0296,-0.0286,-0.0301,-0.0289,-0.0287,-0.0256,-0.0272,-0.0209,-0.0195,-0.0135,-0.0032,0.0217,0.0453,0.0643,0.0709,0.0753,0.0755,0.0752,0.0873,0.0839,0.0855,0.0861,0.0807,0.0807,0.0807,0.0807,0.0807,-0.0282,-0.0285,-0.0284,-0.0291,-0.0299,-0.0312,-0.0302,-0.0286,-0.0277,-0.0211,-0.0164,0.0018,0.0209,0.0583,0.0648,0.0748,0.0792,0.0779,0.0781,0.0783,0.083,0.08,0.0762,0.0762,0.0762,0.0762,0.0762,0,-0.0246,-0.0258,-0.0272,-0.0277,-0.0298,-0.0293,-0.0301,-0.0285,-0.0264,-0.0195,-0.0119,0.0104,0.0342,0.0549,0.075,0.0786,0.0782,0.0729,0.0745,0.0749,0.0751,0.0798,0.0721,0.072,0.072,0.0719,0,0,-0.0222,-0.0233,-0.0253,-0.0268,-0.0273,-0.027,-0.0272,-0.0254,-0.0204,-0.014,0.0019,0.0186,0.0435,0.0528,0.0596,0.0683,0.0662,0.0645,0.0681,0.0692,0.0692,0.0798,0.0876,0,0,0,0,0]}],[{"header":{"parameterUnit":"m.s-1","parameterCategory":2,"la1":30.2991,"la2":30.254,"lo1":-89.0895,"lo2":-89.0444,"dy":0.0017,"dx":0.0017,"nx":28,"ny":28,"refTime":"2023-03-27T15:00:00:Z","depth":"4","parameterNumber":2,"parameterNumberName":"U-component_of_CURRENTS"},"data":[0,0,0,0,0,0,0,0,0,0,0,0,0,0,0,0,0,0,0,0,0,0,0,0,0,0,0,0,0,0,0,0,0,0,0,0,0,0,0,0,0,0,0,0,0,0,0,0,0,0,0,0,0,0,0,0,0,0,-0.1147,-0.1148,0,-0.115,-0.1149,-0.1148,-0.1106,-0.1106,-0.1106,-0.1106,-0.1173,-0.1175,-0.1177,0,0,0,0,0,0,0,0,0,0,0,0,0,-0.1076,-0.1076,-0.1147,-0.1148,-0.1149,-0.115,-0.1149,-0.1148,-0.1107,-0.1106,-0.1106,-0.1106,-0.1173,-0.1175,-0.1178,0,0,0,0,0,0,0,0,0,0,0,0,0,-0.1086,-0.1077,-0.1147,-0.1135,-0.1135,-0.115,-0.1149,-0.1148,-0.1107,-0.1106,-0.1106,-0.1105,-0.1172,-0.1175,-0.1178,-0.1205,0,0,-0.1187,-0.1189,0,0,0,0,0,0,0,0,-0.1086,-0.1088,-0.1136,-0.1136,-0.1136,-0.1136,-0.1149,-0.1174,-0.1107,-0.1107,-0.1106,-0.1105,-0.1173,-0.1176,-0.1163,-0.1208,-0.1211,-0.1188,-0.119,-0.1191,-0.1192,0,0,0,0,0,0,0,-0.1085,-0.1088,-0.1139,-0.1137,-0.1137,-0.112,-0.112,-0.1152,-0.1137,-0.1107,-0.1107,-0.1122,-0.1172,-0.116,-0.1165,-0.1212,-0.1188,-0.119,-0.1192,-0.1193,-0.132,-0.1322,0,0,0,0,0,0,-0.1106,-0.1087,-0.1139,-0.114,-0.112,-0.1122,-0.1122,-0.1128,-0.1135,-0.1138,-0.1122,-0.112,-0.1155,-0.1161,-0.1167,-0.1253,-0.1191,-0.1194,-0.1196,-0.1319,-0.1321,-0.1322,0,0,0,0,0,0,-0.1104,-0.111,-0.1139,-0.1121,-0.1125,-0.1125,-0.1132,-0.1129,-0.1144,-0.1147,-0.1149,-0.1145,-0.1155,-0.1163,-0.12,-0.1253,-0.1195,-0.1198,-0.1317,-0.132,-0.1322,-0.1391,0,0,0,0,0,0,-0.1102,-0.1109,-0.1115,-0.1123,-0.1127,-0.1154,-0.1133,-0.113,-0.1157,-0.1155,-0.1168,-0.1171,-0.1155,-0.1196,-0.1203,-0.1257,-0.12,-0.1315,-0.1318,-0.1321,-0.1387,-0.1396,-0.1403,0,0,0,0,0,-0.1099,-0.1096,-0.1115,-0.1122,-0.1137,-0.1156,-0.1155,-0.1147,-0.116,-0.1161,-0.1169,-0.1172,-0.122,-0.1199,-0.1208,-0.1264,-0.1314,-0.1317,-0.1321,-0.1383,-0.1394,-0.1403,0,0,0,0,0,0,-0.1065,-0.1094,-0.1113,-0.112,-0.1149,-0.1152,-0.1157,-0.1173,-0.118,-0.1184,-0.1188,-0.1192,-0.1245,-0.1244,-0.1222,-0.1307,-0.127,-0.1276,-0.1315,-0.1325,-0.1333,-0.1253,-0.1203,0,0,0,0,0,-0.1069,-0.1077,-0.1112,-0.1125,-0.1142,-0.1165,-0.1175,-0.118,-0.1194,-0.1196,-0.1219,-0.1239,-0.1262,-0.1285,-0.1297,-0.1351,-0.1309,-0.1393,-0.1401,-0.1408,-0.1348,-0.1333,-0.1333,-0.1334,-0.1334,-0.1334,0,0,-0.1068,-0.1083,-0.1092,-0.112,-0.1141,-0.116,-0.1167,-0.1192,-0.1205,-0.1208,-0.1241,-0.1271,-0.1281,-0.1324,-0.135,-0.1335,-0.1398,-0.1412,-0.1418,-0.1352,-0.1337,-0.1336,-0.1336,-0.1336,-0.1336,-0.1335,0,0,-0.107,-0.1084,-0.1098,-0.1119,-0.1161,-0.1168,-0.1191,-0.1226,-0.1233,-0.128,-0.1282,-0.1305,-0.1385,-0.1359,-0.1368,-0.1424,-0.1437,-0.1498,-0.1481,-0.1472,-0.147,-0.1468,-0.146,-0.1456,-0.1507,-0.1507,-0.1507,0,-0.1068,-0.1084,-0.1107,-0.1127,-0.1144,-0.1182,-0.1204,-0.1215,-0.1259,-0.1267,-0.1297,-0.1363,-0.1368,-0.1385,-0.1401,-0.1435,-0.1457,-0.145,-0.1479,-0.1475,-0.1472,-0.1463,-0.1459,-0.1511,-0.1511,-0.151,-0.151,0,-0.1078,-0.1099,-0.111,-0.1144,-0.1166,-0.1185,-0.122,-0.1244,-0.1286,-0.1301,-0.135,-0.136,-0.1383,-0.1429,-0.1432,-0.1443,-0.1479,-0.149,-0.1448,-0.1475,-0.1466,-0.146,-0.1517,-0.1515,-0.1514,-0.1513,0,0,-0.106,-0.1104,-0.1112,-0.1131,-0.1171,-0.1189,-0.1214,-0.1235,-0.1265,-0.1307,-0.1333,-0.1356,-0.1379,-0.1382,-0.142,-0.1411,-0.1417,-0.146,-0.1458,-0.1438,-0.1435,-0.1356,-0.1341,-0.1483,-0.1482,-0.148,-0.1454,0,-0.1064,-0.1081,-0.1112,-0.1147,-0.1161,-0.1196,-0.1221,-0.1245,-0.1291,-0.1326,-0.1317,-0.1365,-0.1365,-0.1417,-0.1397,-0.1422,-0.1399,-0.1423,-0.1418,-0.1415,-0.133,-0.1328,-0.1475,-0.1449,-0.1447,-0.1446,-0.1445,0,-0.1064,-0.1072,-0.1092,-0.1141,-0.1156,-0.1186,-0.123,-0.126,-0.1293,-0.1338,-0.1357,-0.1386,-0.1361,-0.1377,-0.1351,-0.1401,-0.1393,-0.1396,-0.1397,-0.1268,-0.132,-0.1405,-0.1433,-0.1434,-0.1435,-0.1436,-0.1436,0,-0.1017,-0.1064,-0.1068,-0.1083,-0.1142,-0.1166,-0.1201,-0.1256,-0.1283,-0.1343,-0.1388,-0.1382,-0.1403,-0.1376,-0.1366,-0.139,-0.135,-0.1373,-0.1273,-0.127,-0.132,-0.1321,-0.1304,-0.1304,-0.1304,-0.1305,-0.1305,0,-0.0984,-0.1004,-0.1051,-0.1057,-0.1082,-0.1145,-0.1191,-0.124,-0.1302,-0.1323,-0.1389,-0.1406,-0.1415,-0.1405,-0.1373,-0.1297,-0.1342,-0.1224,-0.1237,-0.136,-0.1366,-0.1318,-0.132,-0.1304,-0.1304,-0.1304,-0.1304,0,-0.0934,-0.0963,-0.0979,-0.1037,-0.106,-0.1078,-0.1162,-0.1193,-0.129,-0.1323,-0.134,-0.1417,-0.1418,-0.1412,-0.1381,-0.1302,-0.1239,-0.12,-0.133,-0.136,-0.1165,-0.1172,-0.1059,-0.1055,-0.1052,-0.105,-0.1047,0,-0.0898,-0.0897,-0.0945,-0.0945,-0.0975,-0.1017,-0.1046,-0.1156,-0.1185,-0.1304,-0.1296,-0.1356,-0.1383,-0.1262,-0.1283,-0.1205,-0.1182,-0.1135,-0.1108,-0.1105,-0.1131,-0.1142,-0.1152,-0.1043,-0.1042,-0.1041,-0.104,0,-0.083,-0.0855,-0.0863,-0.0857,-0.0884,-0.0908,-0.0959,-0.0973,-0.1089,-0.1195,-0.1195,-0.1189,-0.1201,-0.1176,-0.115,-0.1089,-0.1153,-0.1104,-0.1109,-0.1083,-0.1085,-0.1116,-0.1129,-0.103,-0.1032,-0.1033,-0.1033,0,-0.0776,-0.0757,-0.0765,-0.0756,-0.0778,-0.0777,-0.0825,-0.0849,-0.0896,-0.1033,-0.1021,-0.1098,-0.1173,-0.1116,-0.1078,-0.1031,-0.0992,-0.0913,-0.0928,-0.0939,-0.0913,-0.0899,-0.0759,0,0,0,0,0,-0.0706,-0.0678,-0.0658,-0.0642,-0.066,-0.0675,-0.0752,-0.0809,-0.0928,-0.088,-0.0944,-0.0942,-0.0923,-0.0967,-0.0888,-0.1025,-0.1001,-0.0927,-0.0919,-0.0973,-0.0985,-0.0966,0,0,0,0,0,0,-0.0659,-0.0641,-0.0626,-0.0551,-0.0517,-0.0535,-0.0578,-0.0661,-0.064,-0.0761,-0.0758,-0.0838,-0.0844,-0.0939,-0.0854,-0.0863,-0.0822,-0.0972,-0.0967,-0.0967,-0.0977,-0.0987,-0.0972,0,0,0,0,0]},{"header":{"parameterUnit":"m.s-1","parameterCategory":2,"la1":30.2991,"la2":30.254,"lo1":-89.0895,"lo2":-89.0444,"dy":0.0017,"dx":0.0017,"nx":28,"ny":28,"refTime":"2023-03-27T15:00:00:Z","depth":"4","parameterNumber":3,"parameterNumberName":"V-component_of_CURRENTS"},"data":[0,0,0,0,0,0,0,0,0,0,0,0,0,0,0,0,0,0,0,0,0,0,0,0,0,0,0,0,0,0,0,0,0,0,0,0,0,0,0,0,0,0,0,0,0,0,0,0,0,0,0,0,0,0,0,0,0,0,-0.0182,-0.0182,0,-0.0219,-0.022,-0.022,-0.0227,-0.0227,-0.0227,-0.0227,-0.0227,-0.0227,-0.0227,0,0,0,0,0,0,0,0,0,0,0,0,0,-0.0144,-0.0144,-0.0182,-0.0182,-0.0183,-0.0219,-0.022,-0.022,-0.0227,-0.0227,-0.0227,-0.0227,-0.0227,-0.0227,-0.0227,0,0,0,0,0,0,0,0,0,0,0,0,0,-0.0167,-0.0144,-0.0182,-0.0192,-0.0193,-0.0219,-0.022,-0.022,-0.0227,-0.0227,-0.0227,-0.0226,-0.0227,-0.0227,-0.0227,-0.0233,0,0,-0.0228,-0.0228,0,0,0,0,0,0,0,0,-0.0166,-0.0168,-0.019,-0.0191,-0.0193,-0.022,-0.0207,-0.0223,-0.0227,-0.0213,-0.0227,-0.0226,-0.0222,-0.0223,-0.0229,-0.0233,-0.0233,-0.0228,-0.0228,-0.0228,-0.0228,0,0,0,0,0,0,0,-0.0164,-0.0167,-0.0195,-0.0191,-0.0192,-0.0204,-0.0207,-0.021,-0.0216,-0.0214,-0.0215,-0.0222,-0.0222,-0.0228,-0.0229,-0.0233,-0.0228,-0.0228,-0.0228,-0.0228,-0.0288,-0.029,0,0,0,0,0,0,-0.0161,-0.0165,-0.0194,-0.0196,-0.018,-0.0205,-0.0208,-0.021,-0.0217,-0.0219,-0.0222,-0.0222,-0.0228,-0.0228,-0.0229,-0.0247,-0.0228,-0.0228,-0.0228,-0.0287,-0.0289,-0.029,0,0,0,0,0,0,-0.016,-0.0163,-0.0192,-0.0183,-0.0188,-0.0206,-0.0208,-0.0211,-0.0217,-0.0224,-0.0224,-0.0225,-0.0228,-0.0228,-0.0261,-0.0246,-0.0228,-0.0228,-0.0285,-0.0287,-0.0289,-0.0276,0,0,0,0,0,0,-0.0159,-0.0163,-0.017,-0.0183,-0.0188,-0.0209,-0.0209,-0.0212,-0.0222,-0.0222,-0.0227,-0.0227,-0.0228,-0.0261,-0.0261,-0.0246,-0.0229,-0.0283,-0.0286,-0.0289,-0.0275,-0.0278,-0.028,0,0,0,0,0,-0.0157,-0.0174,-0.017,-0.0174,-0.0195,-0.021,-0.0214,-0.0225,-0.0223,-0.0228,-0.0252,-0.0227,-0.0277,-0.0263,-0.0263,-0.0247,-0.0282,-0.0285,-0.0288,-0.0274,-0.0277,-0.028,0,0,0,0,0,0,-0.016,-0.0176,-0.0172,-0.0191,-0.0198,-0.0212,-0.0226,-0.0225,-0.0247,-0.0249,-0.0252,-0.0255,-0.0275,-0.0277,-0.0261,-0.0278,-0.0272,-0.0276,-0.0261,-0.0264,-0.0267,-0.0263,-0.0229,0,0,0,0,0,-0.0163,-0.0179,-0.0186,-0.0201,-0.0205,-0.0212,-0.0221,-0.0222,-0.0241,-0.0249,-0.0254,-0.0269,-0.0289,-0.0291,-0.0308,-0.0317,-0.0285,-0.0309,-0.0311,-0.0313,-0.0315,-0.0264,-0.0261,-0.0301,-0.0301,-0.0301,0,0,-0.017,-0.018,-0.0189,-0.0203,-0.021,-0.0221,-0.0217,-0.0229,-0.0234,-0.0246,-0.0263,-0.0279,-0.0299,-0.0317,-0.0323,-0.0313,-0.0285,-0.0318,-0.0319,-0.0319,-0.0267,-0.0262,-0.0258,-0.0303,-0.0303,-0.0302,0,0,-0.0186,-0.0195,-0.021,-0.0215,-0.0225,-0.0232,-0.0233,-0.0242,-0.0242,-0.0262,-0.0278,-0.0301,-0.0314,-0.0332,-0.0342,-0.0373,-0.0307,-0.0364,-0.036,-0.0311,-0.0306,-0.0302,-0.0242,-0.0232,-0.0357,-0.0357,-0.0357,0,-0.019,-0.0208,-0.0216,-0.0226,-0.0233,-0.0236,-0.0243,-0.0249,-0.0266,-0.0266,-0.0267,-0.0305,-0.0324,-0.0347,-0.0365,-0.0374,-0.0325,-0.0339,-0.0309,-0.0304,-0.03,-0.024,-0.0229,-0.0356,-0.0356,-0.0356,-0.0356,0,-0.0209,-0.0225,-0.0235,-0.0249,-0.0255,-0.0266,-0.0268,-0.0272,-0.027,-0.027,-0.0285,-0.0318,-0.0335,-0.0343,-0.0365,-0.0349,-0.0317,-0.0318,-0.0288,-0.0294,-0.0232,-0.022,-0.0356,-0.0356,-0.0356,-0.0356,0,0,-0.0219,-0.0244,-0.0249,-0.026,-0.0266,-0.0279,-0.0279,-0.0284,-0.0283,-0.0288,-0.0279,-0.0331,-0.0328,-0.0344,-0.036,-0.0331,-0.0265,-0.0306,-0.0303,-0.0224,-0.0126,-0.0105,-0.009,-0.0237,-0.0236,-0.0234,-0.009,0,-0.0231,-0.0262,-0.0264,-0.0291,-0.0306,-0.0299,-0.0302,-0.0301,-0.0294,-0.0286,-0.0295,-0.0302,-0.033,-0.0331,-0.0309,-0.0276,-0.0236,-0.0303,-0.0154,-0.015,-0.011,-0.0078,-0.023,-0.0081,-0.0078,-0.0076,-0.0075,0,-0.0248,-0.0269,-0.0295,-0.0315,-0.0318,-0.0332,-0.0331,-0.0333,-0.0313,-0.0296,-0.0287,-0.0279,-0.0263,-0.0278,-0.0196,-0.0224,-0.018,-0.0149,-0.0142,-0.012,-0.0108,-0.0082,-0.0054,-0.0056,-0.0057,-0.0059,-0.006,0,-0.0264,-0.0293,-0.032,-0.0327,-0.0344,-0.0349,-0.0356,-0.0341,-0.0342,-0.0297,-0.0277,-0.0241,-0.0217,-0.0154,-0.0093,-0.0125,0.0027,-0.0008,0.0052,0.0055,-0.0011,-0.0018,0.0057,0.0057,0.0057,0.0056,0.0056,0,-0.0282,-0.0308,-0.0337,-0.0356,-0.0384,-0.0376,-0.0394,-0.0378,-0.0357,-0.0355,-0.0292,-0.0272,-0.018,-0.009,-0.0044,0.0062,0.0078,0.0067,0.0097,-0.0011,-0.002,-0.0002,-0.001,0.0062,0.0061,0.006,0.0059,0,-0.03,-0.0318,-0.0358,-0.0386,-0.0397,-0.042,-0.0438,-0.0446,-0.0404,-0.0389,-0.0368,-0.0268,-0.0131,-0.0021,0.0108,0.0127,0.0222,0.0251,0.0164,0.0184,0.0202,0.0191,0.0328,0.033,0.0332,0.0333,0.0335,0,-0.0314,-0.0335,-0.0389,-0.0416,-0.0436,-0.0469,-0.0488,-0.0475,-0.0475,-0.0403,-0.0392,-0.0243,-0.0167,0.0059,0.0163,0.0326,0.0309,0.0365,0.0234,0.0216,0.0231,0.0218,0.0206,0.0337,0.0338,0.0338,0.0339,0,-0.0337,-0.0358,-0.0392,-0.0447,-0.0486,-0.0527,-0.055,-0.0553,-0.0524,-0.0491,-0.0397,-0.0276,-0.0105,0.0058,0.0227,0.0307,0.0334,0.0382,0.0376,0.0253,0.0229,0.0239,0.0225,0.0345,0.0344,0.0343,0.0343,0,-0.0353,-0.0384,-0.0426,-0.047,-0.0522,-0.0559,-0.0576,-0.0563,-0.0555,-0.0474,-0.0446,-0.0263,-0.0153,0.0049,0.018,0.0312,0.0285,0.0258,0.0258,0.0252,0.0172,0.0125,0.0252,0,0,0,0,0,-0.0362,-0.0392,-0.044,-0.0495,-0.0546,-0.0571,-0.0599,-0.0604,-0.0581,-0.0523,-0.0484,-0.0328,-0.0108,-0.0004,0.013,0.0183,0.0305,0.0337,0.0272,0.0378,0.0371,0.0289,0,0,0,0,0,0,-0.0372,-0.0414,-0.0438,-0.0499,-0.0536,-0.0591,-0.061,-0.0599,-0.0559,-0.0515,-0.0383,-0.0329,-0.0093,-0.0169,0.0128,0.0169,0.0132,0.0449,0.045,0.0382,0.0376,0.037,0.0283,0,0,0,0,0]}]]